Showing default

ECHOSTAR 21, 42749

Orbit data source: Space-Track

ECHOSTAR 21, 42749 is a payload satellite owned by Echostar Mobile (US) in GEO that was launched on Thu, 08 Jun 2017 UTC via a PROTON-M/BRIZ-M launch vehicle from the Tyuratam Missile And Space Complex (TTMTR). Payloads include a variety of satellites, spacecraft, and rockets equipped with specific instruments for various scientific and technological missions. These include communications satellites like Starlink; space stations such as the ISS; scientific satellites like the Hubble; Earth observation satellites from companies like Planet Labs, Umbra, and HawkEye 360; GPS; miniature CubeSats for education and research; and military/defense satellites.

Not visible in the next 10 days
ECHOSTAR 21 details
Identifier
42749, 2017-032A
Orbit
GEO
Last TLE update8 hours ago
Origin
Flag of USEchostar Mobile (US)
ManufacturerSS/Loral (MDA)
MissionOperational Commercial Communications
Bus & MotorLS-1300, R-4D-11
Mass6,871 kg wet, ~3,000 kg dry
Launch date (UTC)
2017-06-08 (8 years ago)
Launch vehicle
PROTON-M/BRIZ-M
Launch site
Tyuratam Missile And Space Complex (TTMTR)
Object type
Payload
Rocket body
Debris
Shape & HBRBox + 2 Pan + 1 Dish, 32.4 m
Radar Cross Section47.415 m², Large (>1 m²)

Expand to show TLE details & history

TLE from 8 hours ago
0 ECHOSTAR 21
1 42749U 17032A   24361.24561619  .00000095  00000-0  00000-0 0  9993
2 42749   2.2217 326.1693 0002117 300.9937 286.7443  1.00272864 27704
Epoch: 2024-12-26T05:53Z
Definitive object data (Epoch: 2024-12-26T05:53:41.238Z)
Latitude-1.65255°
Longitude10.19992°
Altitude35,783.439 km
Speed3.075 km/s
True Right ascension12h 55m 23s
True Declination-1° 39' 03"
Sunlit
Object was in daylight at TLE epoch
Visualization TLE readout
Latitude-0.19386°
Longitude137.80097°
Altitude35,780.539 km
Speed3.075 km/s
Apparent Right ascension21h 48m 38s
Apparent Declination-5° 24' 40"
Sunlit
Object is in daylight
Visualization observer readout
Local Sidereal Time13:44:15
Azimuth73.186° E
Elevation-27.057°
Doppler factor1
Orbital elements
Apogee altitude35,796.287 km
Perigee altitude35,778.434 km
Semi-major axis42,165.498 km
Eccentricity0.0002117
Inclination2.2217°
RAAN326.1693°
Arg. of periapsis300.9937°
True anomaly286.72107°
Mean anomaly286.7443°
Eccentric anomaly286.73268°
Mean motion0.25067 °/min
BSTARUnknown
Orbital period1436.13 mins
Loading historical data...
42749 neighbors
Authenticating...
Loading maneuver chart data...
Loading historical data...
Loading historical data...
Loading historical data...
Loading historical data...
Loading historical data...
Loading historical data...
Loading historical data...
Other satellites on launch #32 in the year 2017 (2017-06-08 UTC)

ECHOSTAR 21 Visibility forecast

Observer location: undefined°, undefined

ECHOSTAR 21 is not visible in the next 10 days
Span
Click to sort rows by Start time (UTC) header in descending order
Start Az.
Max El. time (UTC)
Max El. Az.
Max El.
End time (UTC)
End Az.
|